< < Back
Terminal Aerodrome Forecast


Current Version              Previous Versions:   1  2  3  4  5  6  7  8  9  

Terminal Aerodrome Forecast

233
FTUS42 KMLB 242320
TAFDAB
TAF
KDAB 242320Z 2500/2524 10007KT P6SM VCSH FEW040 SCT250
     FM250200 18003KT P6SM SKC
     FM251500 22007KT P6SM FEW030
     FM251700 11008KT P6SM SCT030=



Latest METAR

742
SAUS80 KWBC 251000
MTRDAB
METAR KDAB 250953Z 18005KT 10SM BKN095 BKN130 26/24 A3006 RMK AO2 SLP177
T02610244


USA.gov is the U.S. government's official web portal to all federal, state and local government web resources and services.